Weather History for Seward, AK

Change the Weather History Date:

Monday, June 3, 2013

  Actual Average Record
Temperature  
Mean Temperature 46 °F -  
Max Temperature 51 °F 56 °F 73 °F (1957)
Min Temperature 42 °F 43 °F 37 °F (1965)
Degree Days  
Heating Degree Days 19    
Moisture  
Dew Point 42 °F    
Average Humidity 87    
Maximum Humidity 100    
Minimum Humidity 71    
Precipitation  
Precipitation 0.08 in - - ()
Sea Level Pressure  
Sea Level Pressure 29.97 in    
Wind  
Wind Speed 2 mph (SSE)    
Max Wind Speed 10 mph    
Max Gust Speed -    
Visibility 10 miles    
Events Rain    
Averages and records for this station are not official NWS values.
T = Trace of Precipitation, MM = Missing Value Source: NWS Daily Summary

Daily Weather History Graph

Daily Weather History Graph

Search for Another Location

Airport:

Trip Planner

Search our weather history database for the weather conditions in past years. The results will help you decide how hot, cold, wet, or windy it might be!

Date:

Astronomy

Jun. 03, 2013 Rise Set
Actual Time 4:42 AM AKDT 11:10 PM AKDT
Civil Twilight 3:13 AM AKDT 12:41 AM AKDT
Nautical Twilight Sun does not rise Sun does not rise
Astronomical Twilight Sun does not rise Sun does not rise
Moon 3:00 AM AKDT (6/3) 5:45 PM AKDT (6/3)
Length of Visible Light 21h 27m
Length of Day
18h 28m
Waning Crescent, 20% of the Moon is Illuminated
Jun 3
Waning Crescent
Jun 8
New
Jun 16
First Quarter
Jun 23
Full
Jun 29
Last Quarter

Hourly Weather History & Observations

Time (AKDT) Temp. Windchill Dew Point Humidity Pressure Visibility Wind Dir Wind Speed Gust Speed Precip Events Conditions
12:02 AM 48.2 °F - 39.2 °F 71% 30.13 in 10.0 mi Calm Calm - 0.00 in Rain Light Rain
12:15 AM 46.4 °F 44.3 °F 41.0 °F 81% 30.13 in 10.0 mi SSE 4.6 mph - 0.00 in Rain Light Rain
12:53 AM 45.0 °F - 42.1 °F 90% 30.12 in 10.0 mi Calm Calm - 0.00 in   Overcast
1:53 AM 45.0 °F 43.5 °F 42.1 °F 90% 30.11 in 8.0 mi NNW 3.5 mph - 0.03 in Rain Light Rain
2:01 AM 44.6 °F 43.1 °F 42.8 °F 93% 30.11 in 9.0 mi North 3.5 mph - 0.00 in Rain Light Rain
2:26 AM 44.6 °F - 42.8 °F 93% 30.10 in 10.0 mi Calm Calm - 0.02 in Rain Light Rain
2:53 AM 44.1 °F - 42.1 °F 93% 30.09 in 10.0 mi Calm Calm - 0.02 in Rain Light Rain
3:25 AM 44.6 °F - 42.8 °F 93% 30.08 in 10.0 mi Calm Calm - 0.00 in Rain Light Rain
3:34 AM 44.6 °F - 42.8 °F 93% 30.07 in 10.0 mi Calm Calm - 0.00 in   Overcast
3:53 AM 44.1 °F - 42.1 °F 93% 30.06 in 10.0 mi Calm Calm - 0.00 in   Overcast
4:05 AM 42.8 °F - 42.8 °F 100% 30.06 in 10.0 mi Calm Calm - N/A   Overcast
4:22 AM 42.8 °F - 42.8 °F 100% 30.05 in 10.0 mi Calm Calm - N/A   Overcast
4:35 AM 42.8 °F 40.1 °F 41.0 °F 93% 30.05 in 10.0 mi North 4.6 mph - N/A   Overcast
4:53 AM 43.0 °F - 42.1 °F 97% 30.05 in 10.0 mi Calm Calm - N/A   Overcast
5:53 AM 43.0 °F - 41.0 °F 93% 30.03 in 10.0 mi Calm Calm - N/A   Overcast
6:53 AM 44.1 °F - 42.1 °F 93% 30.01 in 10.0 mi Calm Calm - N/A   Overcast
7:01 AM 44.6 °F - 42.8 °F 93% 30.00 in 10.0 mi Calm Calm - N/A   Overcast
7:10 AM 44.6 °F - 42.8 °F 93% 30.00 in 10.0 mi Calm Calm - N/A   Overcast
7:28 AM 44.6 °F - 42.8 °F 93% 30.00 in 10.0 mi Calm Calm - N/A   Overcast
7:53 AM 45.0 °F - 43.0 °F 93% 29.99 in 10.0 mi Calm Calm - N/A   Overcast
8:53 AM 46.0 °F - 42.1 °F 86% 29.98 in 10.0 mi Calm Calm - 0.00 in Rain Light Rain
9:14 AM 46.4 °F - 42.8 °F 87% 29.97 in 10.0 mi Calm Calm - 0.01 in Rain Light Rain
9:53 AM 48.0 °F - 42.1 °F 80% 29.95 in 10.0 mi Calm Calm - 0.01 in   Overcast
10:53 AM 48.0 °F - 43.0 °F 83% 29.93 in 10.0 mi Calm Calm - 0.00 in Rain Light Rain
11:53 AM 48.0 °F - 43.0 °F 83% 29.92 in 10.0 mi SSE 5.8 mph - 0.00 in   Overcast
12:53 PM 48.9 °F - 43.0 °F 80% 29.90 in 10.0 mi South 4.6 mph - N/A   Overcast
1:53 PM 48.9 °F - 43.0 °F 80% 29.90 in 10.0 mi South 8.1 mph - 0.00 in Rain Light Rain
2:53 PM 50.0 °F - 42.1 °F 74% 29.89 in 10.0 mi SSE 10.4 mph - 0.00 in   Overcast
3:53 PM 48.9 °F - 43.0 °F 80% 29.88 in 10.0 mi SSE 9.2 mph - 0.00 in Rain Light Rain
4:53 PM 48.9 °F - 43.0 °F 80% 29.86 in 10.0 mi South 4.6 mph - 0.00 in   Overcast
5:53 PM 50.0 °F - 41.0 °F 71% 29.84 in 10.0 mi SSE 9.2 mph - N/A   Overcast
6:53 PM 50.0 °F - 42.1 °F 74% 29.83 in 10.0 mi SSE 8.1 mph - N/A   Overcast
7:53 PM 48.9 °F - 42.1 °F 77% 29.81 in 10.0 mi SSE 4.6 mph - N/A   Overcast
8:53 PM 48.9 °F - 43.0 °F 80% 29.81 in 10.0 mi South 3.5 mph - 0.00 in   Overcast
9:53 PM 48.0 °F - 43.0 °F 83% 29.80 in 10.0 mi South 3.5 mph - 0.02 in   Overcast
10:53 PM 46.9 °F - 43.0 °F 86% 29.78 in 10.0 mi Calm Calm - N/A   Overcast
11:53 PM 46.0 °F - 43.0 °F 89% 29.77 in 10.0 mi Calm Calm - N/A   Overcast